Regional Weather Roundup
Issued by NWS

Home | Current Version | Previous Version | Text Only | Print | Product List | Glossary On
Versions: 1 2 3 4 5 6 7 8 9 10 11 12 13 14 15 16 17 18 19 20 21 22 23 24 25 26 27 28 29 30 31 32 33 34 35 36 37 38 39 40 41 42 43 44 45 46 47 48 49 50
629
ASUS43 KTOP 282059
RWRKS

WEATHER ROUNDUP FOR KANSAS
NATIONAL WEATHER SERVICE GOODLAND KS
400 PM CDT WED JUN 28 2017

NOTE:  "FAIR" INDICATES FEW OR NO CLOUDS BELOW 12,000 FEET WITH NO
SIGNIFICANT WEATHER AND/OR OBSTRUCTIONS TO VISIBILITY.

KSZ001>006-013>018-027>032-041>047-282200-
NORTHWEST KANSAS

CITY           SKY/WX    TMP DP  RH WIND       PRES   REMARKS
GOODLAND       SUNNY     88  47  24 SE6       29.80F
HAYS           SUNNY     94  66  39 W10       29.72F HX  97
HILL CITY      SUNNY     94  57  28 VRB3      29.74S
RUSSELL        MOSUNNY   95  66  38 S16       29.70F HX  98
$$

KSZ061>065-074>080-084>089-282200-
SOUTHWEST KANSAS

CITY           SKY/WX    TMP DP  RH WIND       PRES   REMARKS
DODGE CITY     SUNNY     94  60  32 S17G24    29.74F
ELKHART          N/A     93  55  27 NE5         N/A
GARDEN CITY    SUNNY     94  57  28 VRB6      29.75S
GREAT BEND     MOSUNNY   96  66  37 SW20      29.72F HX  99
LIBERAL        SUNNY     94  57  28 SW6G17    29.76F
$$

KSZ066>073-081>083-090>101-282200-
SOUTHEAST KANSAS

CITY           SKY/WX    TMP DP  RH WIND       PRES   REMARKS
CHANUTE        MOSUNNY   91  69  48 S25G36    29.82F HX  96
COFFEYVILLE    PTSUNNY   89  70  53 S22G29    29.83S
HUTCHINSON     MOSUNNY   98  62  30 S22G32    29.73F HX  99
MEDICINE LODGE   N/A     97  58  27 S23G30    29.71F HX  96
NEWTON         MOSUNNY   93  65  39 S26G36    29.75F HX  95
PARSONS        SUNNY     89  69  51 S12G22    29.84F
WICHITA INTL   MOSUNNY   94  65  38 S24G36    29.75S HX  96
WICHITA JABRA  SUNNY     90  67  46 S22G33    29.76S
WICHITA MCCONL SUNNY     92  64  39 S24G30    29.76F
WINFIELD       SUNNY     90  68  48 S17G35    29.79S
$$

KSZ007>012-019>026-033>040-048>060-102>105-282200-
NORTHEAST KANSAS

CITY           SKY/WX    TMP DP  RH WIND       PRES   REMARKS
CONCORDIA      PTSUNNY   94  66  39 S18G25    29.70S HX  97
EMPORIA        SUNNY     89  69  51 S23G35    29.77F
LAWRENCE       MOSUNNY   90  71  53 S20G28    29.75F HX  96
MANHATTAN      PTSUNNY   94  69  44 S17G26    29.70S HX  99
OLATHE IND     MOSUNNY   89  69  51 S17G35    29.79S
OLATHE EXE     PTSUNNY   87  70  56 S23G31    29.79F
SALINA         PTSUNNY  101  61  26 SW22G41   29.70F HX 102
TOPEKA BILLARD MOSUNNY   91  70  49 SW21G32   29.74R HX  96
TOPEKA FORBES  SUNNY     92  71  50 S22G31    29.75S HX  98
$$




USA.gov is the U.S. government's official web portal to all federal, state and local government web resources and services.